Regional Weather Roundup
Issued by NWS

Home | Current Version | Previous Version | Text Only | Print | Product List | Glossary Off
Versions: 1 2 3 4 5 6 7 8 9 10 11 12 13 14 15 16 17 18 19 20 21 22 23 24 25 26 27 28 29 30 31 32 33 34 35 36 37 38 39 40 41 42 43 44 45 46 47 48 49 50

000
ASUS43 KMKX 260700
RWRWI

WISCONSIN REGIONAL WEATHER ROUNDUP
NATIONAL WEATHER SERVICE MILWAUKEE/SULLIVAN WI
200 AM CDT TUE SEP 26 2017

NOTE: "FAIR" INDICATES FEW OR NO CLOUDS BELOW 12,000 FEET WITH NO
SIGNIFICANT WEATHER AND/OR OBSTRUCTIONS TO VISIBILITY.

WIZ001-002-006>008-014>016-023>028-260800-
NORTHWEST WISCONSIN

CITY           SKY/WX    TMP DP  RH WIND       PRES   REMARKS
SUPERIOR ARPT  LGT RAIN  58  58  99 E13G23    29.96S
ASHLAND        LGT RAIN  56  55  97 NE12      29.97F
HAYWARD        LGT RAIN  58  56  93 CALM      29.95S
SIREN          LGT RAIN  56  56  97 N3        29.94S
CUMBERLAND     DRIZZLE   55  54  94 NE5       29.94F
RICE LAKE      DRIZZLE   58  58  97 NE5       29.95F
CHETEK         CLOUDY    60  60  98 CALM      29.94F
LADYSMITH      CLOUDY    61  60  97 CALM      29.96S
EAU CLAIRE     NOT AVBL
MENOMONIE      CLOUDY    61  61 100 CALM      29.93S
NEW RICHMOND   RAIN      58  57  99 CALM      29.94F
OSCEOLA        LGT RAIN  57  57 100 NW3       29.97S
$$

WIZ003>005-009-010-017-018-260800-
NORTH CENTRAL WISCONSIN

CITY           SKY/WX    TMP DP  RH WIND       PRES   REMARKS
MANITOWISH WTR FOG       59  59 100 E3        29.95  VSB 3/4
ARBOR VITAE    CLOUDY    62  61  96 CALM      29.95F
WOODRUFF       CLOUDY    62  61  96 CALM      29.95F
RHINELANDER    CLOUDY    62  62 100 E3        29.96F
EAGLE RIVER    CLOUDY    61  61 100 E3        29.95S
LAND O LAKES   FOG       61  61 100 NE3       29.97F VSB 1/4
PHILLIPS       FOG       59  59 100 CALM      29.94S VSB 1/2
TOMAHAWK       FOG       61  60  97 CALM      29.95F VSB 1/4
MEDFORD        LGT RAIN  62  62  99 CALM      29.95S
MERRILL        CLOUDY    63  63 100 CALM      29.95S
$$

WIZ029-030-035-036-043>047-260800-
CENTRAL WISCONSIN

CITY           SKY/WX    TMP DP  RH WIND       PRES   REMARKS
WAUSAU         LGT RAIN  65  65 100 CALM      29.93F
MOSINEE        LGT RAIN  63  63 100 E3        29.95F
MARSHFIELD     CLOUDY    64  62  93 CALM      29.93F
STEVENS POINT  CLOUDY    64  64 100 SE3       29.95F
WAUPACA        PTCLDY    66  64  91 CALM      29.95F
WAUTOMA        CLEAR     65  63  93 CALM      29.96S
WISC RAPIDS    LGT RAIN  66  65  96 CALM      29.95R
CAMP DOUGLAS   CLOUDY    66  66 100 S3        29.93F FOG
$$

WIZ011>013-019>022-031-037>040-048>050-260800-
NORTHEAST WISCONSIN

CITY           SKY/WX    TMP DP  RH WIND       PRES   REMARKS
ANTIGO         CLOUDY    64  64 100 CALM      29.97S
SHAWANO        CLEAR     66  63  91 CALM      29.95R
OCONTO         PTCLDY    61  59  94 CALM      29.93R
STURGEON BAY   CLEAR     65  60  84 CALM      29.94
GREEN BAY      CLEAR     64  63  96 W5        29.95R
MANITOWOC      PTCLDY    63  59  87 CALM      29.94S
APPLETON       PTCLDY    64  59  82 W8        29.95R
CLINTONVILLE   NOT AVBL
OSHKOSH        CLEAR     67  63  87 NW6       29.95S
$$

WIZ032>034-041-042-053>061-260800-
SOUTHWEST WISCONSIN

CITY           SKY/WX    TMP DP  RH WIND       PRES   REMARKS
LA CROSSE      CLOUDY    69  68  96 CALM      29.90F
SPARTA         LGT RAIN  60  60 100 CALM      29.93S
VIROQUA        CLOUDY    64  64 100 SE7       29.94F
BOSCOBEL       CLOUDY    67  66  97 CALM      29.93F
PRAIRIE DU CHI CLOUDY    66  65  94 E3        29.91F FOG
PLATTEVILLE    CLOUDY    66  66  99 NE5       29.95F
$$

WIZ056-057-062-063-064-067-068-260800-
SOUTH CENTRAL WISCONSIN

CITY           SKY/WX    TMP DP  RH WIND       PRES   REMARKS
REEDSBURG      LGT RAIN  64  64 100 CALM      29.94S
BARABOO/DELLS  LGT RAIN  66  63  90 E5        29.95F
LONE ROCK      NOT AVBL
MINERAL POINT  MOCLDY    68  68 100 CALM      29.96R
MADISON        CLEAR     65  62  90 N3        29.95S
MIDDLETON      CLEAR     66  63  91 CALM      29.97S
WATERTOWN      CLEAR     68  64  86 N5        29.94F
MONROE         CLEAR     66  61  82 N6        29.95S
JANESVILLE     CLEAR     64  61  88 NW6       29.95R
$$

WIZ051-052-058>065-066-070>072-260800-
SOUTHEAST WISCONSIN

CITY           SKY/WX    TMP DP  RH WIND       PRES   REMARKS
MILWAUKEE      CLEAR     72  60  66 S6        29.93S
WAUKESHA       CLEAR     63  55  77 CALM      29.95S
MILWAUKEE/TIMM CLEAR     66  55  68 CALM      29.95R
RACINE         CLEAR     69  64  84 CALM      29.95S
BURLINGTON     CLEAR     61  61 100 CALM      29.94S
KENOSHA        PTCLDY    64  59  83 CALM      29.94S
FOND DU LAC    CLEAR     68  60  75 N3        29.95R
SHEBOYGAN      PTCLDY    63  62  97 CALM      29.93S
WEST BEND        N/A     61  59  94 CALM      29.95S
JUNEAU         CLEAR     67  63  85 N5        29.96F
$$

LSZ147-162-260800-
LAKE SUPERIOR

STATION/POSITION TIME  TEMP    WIND        PRES    WAVE
                       AIR SEA DIR/SP/G            HT/PER
                 (UTC) (F)     (DEG/KT/KT) (MB)    (FT/S)
W MID LAKE BUOY  0550   56 56   30/ 17/ 19 1015.6F   4/ 5
DEVILS ISLAND    0600   56      60/ 21/ 23 1016.2R
PORT WING        0540   60      70/ 10/ 15 1015.2F
SAXON HARBOR     0630   60      50/ 16/ 18 1014.2F
$$

LMZ867-665-643>646-260800-
LAKE MICHIGAN

STATION/POSITION TIME  TEMP    WIND        PRES    WAVE
                       AIR SEA DIR/SP/G            HT/PER
                 (UTC) (F)     (DEG/KT/KT) (MB)    (FT/S)
S GREEN BAY BUOY 0630   70 70  110/  2/  2 1013.5F
N MID LAKE BUOY  0550   69 67  190/  6/  6 1014.5R   1
NORTHPORT PIER   0640   69      CALM  /  2 1013.5R
KEWAUNEE LAKESHO 0630   66     290/  1/  2 1013.0R
SHEBOYGAN LAKESH 0600   72     240/  4/  5 1013.1R
PORT WASHINGTON  0630   67     270/  2/  3 1014.6R
ATWATER BUOY     0509   67 63  170/  6/  8 1013.6S
MILWAUKEE LAKESH 0630   68     180/  1/  2   N/A
S MID LAKE BUOY  0550   74 71  130/  8/  8 1013.7R   0
KENOSHA   LAKESH 0600   76     210/  5/  7 1013.5
$$

TC  - TEMPERATURE IN CELSIUS
VSB - VISIBILITY IN STATUTE MILES
WCI - WIND CHILL INDEX
HX  - HEAT INDEX





USA.gov is the U.S. government's official web portal to all federal, state and local government web resources and services.